sat.trackr.live / text

‹ back to catalog

STARLINK-32239

NORAD 61892 · 2024-204U

PAYLOAD ACTIVE UNKNOWN

§ Identity

Operator
Country
US
Launch date
2024-11-09
Launch site
AFWTR
Launch vehicle
Mass (kg)
RCS (m²)

Purposes: comms

External: N2YO · Heavens-Above · Gunter

§ Orbital elements

Epoch: 2026-09-21T08:22:13.569888Z

Period
93.85 min
Inclination
53.1606°
Eccentricity
0.0001376
Mean motion
15.34390945 rev/d
Perigee alt
461.8 km
Apogee alt
463.7 km
Semi-major
6,840.9 km
B*
1.9796e-6
RAAN
295.4455°
Arg perigee
89.6638°
Mean anomaly
270.4522°
Rev number
10,509

§ Raw data

STARLINK-322391 61892U 24204U   26264.34876817 -.00000309  00000+0  19796-5 0  99912 61892  53.1606 295.4455 0001376  89.6638 270.4522 15.34390945105090

JSON: /api/v1/satellites/61892 · /tle

For live sub-satellite position, see the globe view (requires WebGL).

§ Visibility from observer

Set your observer location to see the next 7 days of passes ≥ 10°. The values pass through the URL so the page stays shareable.

No JS? Fill the form by hand. The geolocation button needs JavaScript.